CW7986 Weather Reports


Display with metric or nautical units.
time (UTC)temp
F
wind
direction
speed
MPH
gust
MPH
rain 1hr
in
rain 24hr
in
rain mn
in
humidity
%
barometer
mb
20260831220504 88 286 6.0 11.0 0.00 0.00 0.00 70 1013.8
20260831220003 88 292 5.0 11.0 0.00 0.00 0.00 69 1013.9
20260831215503 89 300 5.0 11.0 0.00 0.00 0.00 69 1013.7
20260831215003 89 296 6.0 13.0 0.00 0.00 0.00 69 1013.7
20260831214524 88 296 6.0 13.0 0.00 0.00 0.00 69 1013.6
20260831214003 88 296 6.0 13.0 0.00 0.00 0.00 69 1013.5
20260831213503 88 290 6.0 13.0 0.00 0.00 0.00 69 1013.5
20260831213003 88 290 6.0 12.0 0.00 0.00 0.00 70 1013.5
20260831212504 88 293 6.0 12.0 0.00 0.00 0.00 68 1013.7
20260831212003 88 299 6.0 11.0 0.00 0.00 0.00 69 1013.7
20260831211504 88 291 6.0 11.0 0.00 0.00 0.00 69 1013.7
20260831211004 88 281 7.0 13.0 0.00 0.00 0.00 69 1013.6
20260831210503 88 284 7.0 13.0 0.00 0.00 0.00 69 1013.6
20260831210004 88 286 7.0 12.0 0.00 0.00 0.00 68 1013.8
20260831205504 88 285 7.0 12.0 0.00 0.00 0.00 68 1014.0
20260831205003 89 282 7.0 14.0 0.00 0.00 0.00 67 1014.1
20260831204504 88 281 7.0 14.0 0.00 0.00 0.00 67 1014.2
20260831204003 89 284 7.0 13.0 0.00 0.00 0.00 67 1014.3
20260831203503 89 294 7.0 13.0 0.00 0.00 0.00 67 1014.2
20260831203004 89 294 7.0 13.0 0.00 0.00 0.00 68 1014.2
20260831202504 89 283 7.0 13.0 0.00 0.00 0.00 69 1014.3
20260831202003 88 282 8.0 13.0 0.00 0.00 0.00 66 1014.3
20260831201524 89 284 7.0 13.0 0.00 0.00 0.00 66 1014.2
20260831201003 89 281 7.0 12.0 0.00 0.00 0.00 67 1014.2
20260831200504 89 282 7.0 12.0 0.00 0.00 0.00 67 1014.2
20260831200004 89 275 6.0 11.0 0.00 0.00 0.00 67 1014.2
20260831195524 89 269 6.0 11.0 0.00 0.00 0.00 67 1014.2
20260831195024 88 278 6.0 11.0 0.00 0.00 0.00 67 1014.2
20260831194504 88 285 6.0 11.0 0.00 0.00 0.00 67 1014.2
20260831194004 88 277 5.0 11.0 0.00 0.00 0.00 67 1014.2
20260831193503 90 269 5.0 12.0 0.00 0.00 0.00 66 1014.2
20260831193003 89 270 6.0 12.0 0.00 0.01 0.00 68 1014.2
20260831192504 88 269 5.0 11.0 0.00 0.01 0.00 67 1014.2
20260831192004 89 271 5.0 10.0 0.00 0.01 0.00 66 1014.2
20260831191525 89 271 5.0 12.0 0.00 0.03 0.00 66 1014.2
20260831191004 89 266 5.0 12.0 0.00 0.03 0.00 65 1014.2
20260831190504 90 268 6.0 13.0 0.00 0.03 0.00 66 1014.3
20260831190004 89 271 7.0 14.0 0.00 0.03 0.00 67 1014.3
20260831185504 90 272 6.0 14.0 0.00 0.03 0.00 66 1014.3
20260831185004 89 271 5.0 12.0 0.00 0.03 0.00 66 1014.4
20260831184525 90 271 6.0 13.0 0.00 0.03 0.00 67 1014.4
20260831184003 88 269 6.0 13.0 0.00 0.03 0.00 68 1014.5
20260831183504 89 269 5.0 11.0 0.00 0.03 0.00 68 1014.6
20260831183003 90 270 6.0 11.0 0.00 0.03 0.00 69 1014.7
20260831182504 90 270 4.0 11.0 0.00 0.03 0.00 67 1014.8
20260831182003 91 271 4.0 11.0 0.00 0.03 0.00 67 1014.9
20260831181504 90 272 6.0 11.0 0.00 0.03 0.00 69 1014.9
20260831181003 89 274 5.0 11.0 0.00 0.03 0.00 67 1014.8
20260831180504 90 275 4.0 9.0 0.00 0.03 0.00 68 1015.0
20260831180026 90 274 5.0 11.0 0.00 0.03 0.00 69 1015.0
20260831175504 89 272 5.0 11.0 0.00 0.03 0.00 69 1015.0
20260831175004 90 270 4.0 9.0 0.00 0.03 0.00 69 1015.2
20260831174525 90 273 4.0 11.0 0.00 0.03 0.00 68 1015.1
20260831174003 90 274 4.0 11.0 0.00 0.03 0.00 69 1015.2
20260831173504 90 271 5.0 10.0 0.00 0.03 0.00 69 1015.3
20260831173025 88 275 6.0 11.0 0.00 0.03 0.00 70 1015.3
20260831172503 88 277 5.0 11.0 0.00 0.03 0.00 70 1015.4
20260831172004 89 274 4.0 9.0 0.00 0.03 0.00 69 1015.6
20260831171504 88 272 4.0 10.0 0.00 0.03 0.00 69 1015.6
20260831171025 90 271 3.0 10.0 0.00 0.03 0.00 64 1015.7
20260831170504 94 187 1.0 5.0 0.00 0.03 0.00 59 1015.8
20260831170024 95 109 1.0 4.0 0.00 0.03 0.00 53 1015.8
20260831165503 93 113 1.0 4.0 0.00 0.03 0.00 58 1015.8
20260831165004 91 145 1.0 4.0 0.00 0.03 0.00 59 1015.8
20260831164504 94 140 2.0 7.0 0.00 0.03 0.00 54 1015.9
20260831164003 93 123 2.0 7.0 0.00 0.03 0.00 60 1015.9
20260831163504 94 98 1.0 6.0 0.00 0.03 0.00 58 1015.9
20260831163003 94 100 2.0 5.0 0.00 0.03 0.00 61 1015.9
20260831162504 93 104 2.0 5.0 0.00 0.03 0.00 58 1016.1
20260831162004 92 127 2.0 5.0 0.00 0.03 0.00 58 1016.2
20260831161524 94 120 2.0 5.0 0.00 0.03 0.00 57 1016.2
20260831161004 93 131 1.0 5.0 0.00 0.03 0.00 61 1016.2
20260831160504 91 155 2.0 6.0 0.00 0.03 0.00 63 1016.2
20260831160003 92 137 2.0 6.0 0.00 0.03 0.00 61 1016.3
20260831155509 92 90 2.0 4.0 0.00 0.03 0.00 61 1016.3
20260831155003 91 97 2.0 6.0 0.00 0.03 0.00 65 1016.3
20260831154503 89 148 2.0 7.0 0.00 0.03 0.00 67 1016.4
20260831154003 91 146 2.0 7.0 0.00 0.03 0.00 66 1016.4
20260831153503 91 141 2.0 9.0 0.00 0.03 0.00 63 1016.4
20260831153004 91 145 3.0 9.0 0.00 0.03 0.00 66 1016.4
20260831152525 89 138 3.0 6.0 0.00 0.03 0.00 66 1016.4
20260831152003 90 108 1.0 6.0 0.00 0.03 0.00 66 1016.3
20260831151504 90 94 1.0 6.0 0.00 0.03 0.00 67 1016.3
20260831151003 90 83 2.0 5.0 0.00 0.03 0.00 69 1016.3
20260831150524 89 84 2.0 5.0 0.00 0.03 0.00 70 1016.3
20260831150004 89 114 2.0 5.0 0.00 0.03 0.00 69 1016.3
20260831145503 88 107 2.0 5.0 0.00 0.03 0.00 69 1016.2
20260831145003 89 119 2.0 7.0 0.00 0.03 0.00 70 1016.3
20260831144503 88 120 2.0 7.0 0.00 0.03 0.00 70 1016.3
20260831144004 88 84 2.0 5.0 0.00 0.03 0.00 70 1016.3
20260831143505 88 91 2.0 5.0 0.00 0.03 0.00 72 1016.3
20260831143004 88 99 2.0 6.0 0.00 0.03 0.00 73 1016.3
20260831142504 87 84 2.0 6.0 0.00 0.03 0.00 72 1016.2
20260831142003 86 72 2.0 6.0 0.00 0.03 0.00 74 1016.2
20260831141503 86 79 2.0 6.0 0.00 0.03 0.00 74 1016.2
20260831141003 86 77 2.0 6.0 0.00 0.03 0.00 75 1016.2
20260831140504 85 71 2.0 6.0 0.00 0.03 0.00 75 1016.3
20260831140004 85 66 2.0 6.0 0.00 0.03 0.00 76 1016.1
20260831135503 85 59 2.0 7.0 0.00 0.03 0.00 77 1015.9
20260831135004 85 58 2.0 7.0 0.00 0.03 0.00 76 1015.8
20260831134503 84 62 2.0 5.0 0.00 0.03 0.00 76 1015.8
20260831134004 84 75 1.0 4.0 0.00 0.03 0.00 76 1015.8
20260831133525 85 82 2.0 5.0 0.00 0.03 0.00 76 1015.8
20260831133004 84 65 2.0 5.0 0.00 0.03 0.00 77 1015.8
20260831132504 84 66 1.0 4.0 0.00 0.03 0.00 76 1015.8
20260831132004 84 85 1.0 3.0 0.00 0.03 0.00 77 1015.9
20260831131524 83 70 1.0 3.0 0.00 0.03 0.00 80 1015.9
20260831131025 82 92 1.0 3.0 0.00 0.03 0.00 82 1015.8
20260831130504 82 125 1.0 4.0 0.00 0.03 0.00 84 1015.8
20260831130024 81 113 1.0 4.0 0.00 0.03 0.00 85 1015.8
20260831125503 80 90 1.0 4.0 0.00 0.03 0.00 87 1015.8
20260831125024 79 78 1.0 4.0 0.00 0.03 0.00 88 1015.8
20260831124503 79 69 0.0 4.0 0.00 0.03 0.00 89 1015.8
20260831124004 78 56 1.0 4.0 0.00 0.03 0.00 89 1015.8
20260831123503 78 51 1.0 4.0 0.00 0.03 0.00 90 1015.8
20260831123003 78 50 1.0 4.0 0.00 0.03 0.00 90 1015.8
20260831122526 77 49 1.0 3.0 0.00 0.03 0.00 90 1015.6
20260831122003 77 79 1.0 3.0 0.00 0.03 0.00 90 1015.4
20260831121504 76 86 1.0 3.0 0.00 0.03 0.00 90 1015.3
20260831121003 76 80 1.0 4.0 0.00 0.03 0.00 90 1015.3
20260831120503 76 60 1.0 4.0 0.00 0.03 0.00 90 1015.3
20260831120004 76 55 1.0 4.0 0.00 0.03 0.00 90 1015.2
20260831115503 76 53 0.0 4.0 0.00 0.03 0.00 90 1014.9
20260831115003 75 0 0.0 0.0 0.00 0.03 0.00 90 1014.9
20260831114503 75 0 0.0 0.0 0.00 0.03 0.00 90 1014.9
20260831114003 75 0 0.0 0.0 0.00 0.03 0.00 90 1014.8
20260831113504 75 0 0.0 0.0 0.00 0.03 0.00 90 1014.8
20260831113004 75 0 0.0 0.0 0.00 0.03 0.00 90 1014.8
20260831112504 75 0 0.0 0.0 0.00 0.03 0.00 90 1014.8
20260831112003 75 0 0.0 0.0 0.00 0.03 0.00 90 1014.8
20260831111504 75 0 0.0 0.0 0.00 0.03 0.00 90 1014.7
20260831111004 75 0 0.0 0.0 0.00 0.03 0.00 90 1014.5
20260831110503 75 0 0.0 0.0 0.00 0.03 0.00 90 1014.4
20260831110003 74 0 0.0 0.0 0.00 0.03 0.00 90 1014.3
20260831105504 74 61 0.0 1.0 0.00 0.03 0.00 90 1014.3
20260831105004 74 92 0.0 2.0 0.00 0.03 0.00 90 1014.3
20260831104504 74 100 1.0 2.0 0.00 0.03 0.00 90 1014.2
20260831104003 74 104 0.0 2.0 0.00 0.03 0.00 90 1014.2
20260831103504 75 104 0.0 2.0 0.00 0.03 0.00 90 1014.2
20260831103003 75 104 0.0 2.0 0.00 0.03 0.00 90 1014.2
20260831102503 75 104 1.0 2.0 0.00 0.03 0.00 90 1014.2
20260831102003 74 104 1.0 2.0 0.00 0.03 0.00 90 1014.2
20260831101525 75 104 1.0 2.0 0.00 0.03 0.00 90 1014.3
20260831101003 75 103 0.0 2.0 0.00 0.03 0.00 89 1014.3
20260831100503 74 69 0.0 1.0 0.00 0.03 0.00 89 1014.2
20260831100004 74 0 0.0 0.0 0.00 0.03 0.00 89 1014.2
20260831095525 74 0 0.0 0.0 0.00 0.03 0.00 89 1014.2
20260831095004 74 0 0.0 0.0 0.00 0.03 0.00 89 1014.3
20260831094503 74 0 0.0 0.0 0.00 0.03 0.00 89 1014.2
20260831094004 74 0 0.0 0.0 0.00 0.03 0.00 89 1014.2
20260831093504 75 0 0.0 0.0 0.00 0.03 0.00 89 1014.3
20260831093003 75 0 0.0 0.0 0.00 0.03 0.00 89 1014.3
20260831092524 75 69 0.0 1.0 0.00 0.03 0.00 89 1014.3
20260831092004 75 69 0.0 2.0 0.00 0.03 0.00 89 1014.2
20260831091524 75 70 0.0 2.0 0.00 0.03 0.00 89 1014.1
20260831091004 75 67 0.0 2.0 0.00 0.03 0.00 89 1014.2
20260831090503 75 68 0.0 2.0 0.00 0.03 0.00 89 1014.2
20260831090004 75 88 1.0 2.0 0.00 0.03 0.00 89 1014.2
20260831085504 75 112 0.0 2.0 0.00 0.03 0.00 89 1014.2
20260831085004 75 112 0.0 2.0 0.00 0.03 0.00 89 1014.2
20260831084504 75 0 0.0 0.0 0.00 0.03 0.00 89 1014.2
20260831084004 75 89 0.0 1.0 0.00 0.03 0.00 89 1014.3
20260831083524 75 77 0.0 2.0 0.00 0.03 0.00 89 1014.2
20260831083003 75 71 0.0 2.0 0.00 0.03 0.00 89 1014.2
20260831082503 75 78 0.0 3.0 0.00 0.03 0.00 89 1014.2
20260831082003 75 88 0.0 3.0 0.00 0.03 0.00 89 1014.2
20260831081504 75 91 1.0 3.0 0.00 0.03 0.00 89 1014.2
20260831081003 75 91 0.0 2.0 0.00 0.03 0.00 89 1014.2
20260831080503 75 91 0.0 2.0 0.00 0.03 0.00 89 1014.3
20260831080004 75 91 0.0 2.0 0.00 0.03 0.00 89 1014.3
20260831075503 75 91 0.0 1.0 0.00 0.03 0.00 89 1014.3
20260831075003 75 0 0.0 0.0 0.00 0.03 0.00 89 1014.3
20260831074504 75 0 0.0 0.0 0.00 0.03 0.00 89 1014.3
20260831074003 75 0 0.0 0.0 0.00 0.03 0.00 89 1014.3
20260831073503 75 0 0.0 0.0 0.00 0.03 0.00 89 1014.3
20260831073004 75 0 0.0 0.0 0.00 0.03 0.00 89 1014.4
20260831072504 75 0 0.0 0.0 0.00 0.03 0.00 89 1014.4
20260831072004 75 0 0.0 0.0 0.00 0.03 0.00 89 1014.5
20260831071504 75 0 0.0 0.0 0.00 0.03 0.00 89 1014.5
20260831071024 75 0 0.0 0.0 0.00 0.03 0.00 89 1014.6
20260831070503 75 0 0.0 0.0 0.00 0.03 0.00 89 1014.7
20260831070004 75 0 0.0 0.0 0.00 0.03 0.00 89 1014.7
20260831065504 75 0 0.0 0.0 0.00 0.03 0.00 89 1014.7
20260831065003 75 91 0.0 2.0 0.00 0.03 0.00 89 1014.7
20260831064503 75 91 0.0 2.0 0.00 0.03 0.00 89 1014.7
20260831064003 75 91 0.0 2.0 0.00 0.03 0.00 89 1014.8
20260831063504 75 91 0.0 2.0 0.00 0.03 0.00 89 1014.8
20260831063004 75 86 1.0 3.0 0.00 0.03 0.00 88 1014.8
20260831062504 75 76 1.0 3.0 0.00 0.03 0.00 88 1014.8
20260831062024 75 76 1.0 3.0 0.00 0.03 0.00 88 1014.8
20260831061504 75 85 0.0 3.0 0.00 0.03 0.00 88 1014.9
20260831061003 75 85 0.0 3.0 0.00 0.03 0.00 88 1014.9
20260831060504 75 85 1.0 2.0 0.00 0.03 0.00 88 1014.8
20260831060024 75 85 0.0 2.0 0.00 0.03 0.00 88 1014.8
20260831055504 75 89 0.0 2.0 0.00 0.03 0.00 88 1014.8
20260831055003 75 89 0.0 2.0 0.00 0.03 0.00 88 1014.8
20260831054503 75 91 0.0 2.0 0.00 0.03 0.00 88 1014.8
20260831054004 75 71 1.0 2.0 0.00 0.03 0.00 88 1014.8
20260831053525 75 56 0.0 2.0 0.00 0.03 0.00 88 1014.9
20260831053003 75 56 0.0 3.0 0.00 0.03 0.00 88 1014.8
20260831052503 75 56 1.0 3.0 0.00 0.03 0.00 88 1015.0
20260831052004 75 74 1.0 4.0 0.00 0.03 0.00 88 1015.2
20260831051504 75 86 1.0 4.0 0.00 0.03 0.00 88 1015.3
20260831051004 75 86 1.0 4.0 0.00 0.03 0.00 88 1015.2
20260831050504 75 79 1.0 4.0 0.00 0.03 0.00 88 1015.2
20260831050004 75 82 2.0 6.0 0.00 0.03 0.00 88 1015.3
20260831045504 76 84 2.0 6.0 0.00 0.03 0.00 88 1015.3
20260831045004 76 83 2.0 6.0 0.00 0.03 0.00 88 1015.3
20260831044524 76 82 2.0 6.0 0.00 0.03 0.00 88 1015.3
20260831044025 76 83 1.0 5.0 0.00 0.03 0.00 88 1015.3
20260831043505 76 78 1.0 5.0 0.00 0.03 0.00 88 1015.3
20260831043004 76 73 2.0 4.0 0.00 0.03 0.00 88 1015.3
20260831042503 76 75 2.0 4.0 0.00 0.03 0.00 88 1015.4
20260831042025 76 69 2.0 4.0 0.00 0.03 0.00 88 1015.4
20260831041504 76 63 1.0 4.0 0.00 0.03 0.00 88 1015.3
20260831041004 76 70 1.0 4.0 0.00 0.03 0.00 88 1015.3
20260831040504 76 75 1.0 4.0 0.00 0.03 0.00 88 1015.3
20260831040004 76 71 1.0 4.0 0.00 0.03 0.00 88 1015.4
20260831035504 76 71 1.0 4.0 0.00 0.03 0.03 88 1015.3
20260831035003 76 84 1.0 4.0 0.00 0.03 0.03 88 1015.4
20260831034504 76 93 1.0 4.0 0.00 0.03 0.03 88 1015.4
20260831034003 76 96 2.0 6.0 0.00 0.03 0.03 88 1015.4
20260831033504 76 101 1.0 6.0 0.00 0.03 0.03 88 1015.4
20260831033003 76 91 1.0 5.0 0.00 0.03 0.03 88 1015.4
20260831032525 76 91 1.0 5.0 0.00 0.03 0.03 88 1015.3
20260831032004 76 94 1.0 4.0 0.00 0.03 0.03 88 1015.3
20260831031503 76 84 2.0 5.0 0.00 0.03 0.03 88 1015.3
20260831031004 76 82 1.0 5.0 0.00 0.03 0.03 88 1015.3
20260831030504 76 81 1.0 4.0 0.00 0.03 0.03 88 1015.4
20260831030004 76 80 1.0 4.0 0.00 0.03 0.03 87 1015.4
20260831025504 76 78 1.0 4.0 0.00 0.03 0.03 87 1015.4
20260831025003 76 71 2.0 4.0 0.00 0.03 0.03 87 1015.4
20260831024504 76 68 1.0 4.0 0.00 0.03 0.03 87 1015.3
20260831024003 76 76 1.0 3.0 0.00 0.03 0.03 87 1015.4
20260831023505 76 79 1.0 3.0 0.00 0.03 0.03 87 1015.4
20260831023004 76 69 1.0 4.0 0.00 0.03 0.03 87 1015.5
20260831022503 76 67 1.0 4.0 0.00 0.03 0.03 87 1015.5
20260831022005 76 71 1.0 4.0 0.00 0.03 0.03 87 1015.5
20260831021503 76 67 1.0 4.0 0.00 0.03 0.03 87 1015.4
20260831021003 76 65 1.0 4.0 0.00 0.03 0.03 87 1015.4
20260831020503 76 79 1.0 4.0 0.00 0.03 0.03 87 1015.4
20260831020003 77 98 1.0 3.0 0.00 0.03 0.03 87 1015.4
20260831015524 77 92 2.0 4.0 0.00 0.03 0.03 87 1015.3
20260831015003 77 84 2.0 4.0 0.00 0.03 0.03 87 1015.3
20260831014524 77 88 2.0 5.0 0.00 0.03 0.03 87 1015.3
20260831014004 77 88 1.0 5.0 0.00 0.03 0.03 87 1015.3
20260831013524 77 83 1.0 4.0 0.00 0.03 0.03 87 1015.3
20260831013004 77 86 2.0 4.0 0.00 0.03 0.03 87 1015.3
20260831012503 77 87 2.0 4.0 0.00 0.03 0.03 87 1015.3
20260831012003 77 74 2.0 4.0 0.00 0.03 0.03 87 1015.3
20260831011504 77 71 2.0 4.0 0.00 0.03 0.03 86 1015.3
20260831011004 77 76 1.0 5.0 0.00 0.03 0.03 86 1015.3
20260831010504 77 77 1.0 5.0 0.00 0.03 0.03 86 1015.3
20260831010003 77 81 1.0 5.0 0.00 0.03 0.03 86 1015.3
20260831005504 78 93 2.0 5.0 0.00 0.03 0.03 86 1015.3
20260831005003 78 91 1.0 4.0 0.00 0.03 0.03 86 1015.3
20260831004504 78 83 2.0 5.0 0.00 0.03 0.03 86 1015.2
20260831004003 78 87 1.0 5.0 0.00 0.03 0.03 86 1015.1
20260831003525 78 87 1.0 4.0 0.00 0.03 0.03 86 1015.0
20260831003003 78 81 1.0 3.0 0.00 0.03 0.03 85 1015.0
20260831002504 78 79 1.0 3.0 0.00 0.03 0.03 85 1015.0
20260831002025 78 86 1.0 3.0 0.00 0.03 0.03 85 1014.9
20260831001503 78 91 1.0 3.0 0.00 0.03 0.03 85 1014.9
20260831001004 78 93 1.0 3.0 0.00 0.03 0.03 85 1014.8
20260831000503 78 93 1.0 4.0 0.00 0.03 0.03 85 1014.8
20260831000004 78 92 1.0 4.0 0.00 0.03 0.03 85 1014.8
20260830235524 78 81 1.0 3.0 0.00 0.03 0.03 84 1014.8
20260830235003 78 65 1.0 4.0 0.00 0.03 0.03 85 1014.8
20260830234503 78 61 1.0 4.0 0.00 0.03 0.03 85 1014.9
20260830234003 78 66 1.0 3.0 0.00 0.03 0.03 85 1014.9
20260830233524 78 79 1.0 3.0 0.00 0.04 0.03 85 1014.9
20260830233003 78 104 1.0 3.0 0.00 0.04 0.03 85 1014.8
20260830232503 78 123 1.0 5.0 0.00 0.04 0.03 85 1014.8
20260830232003 78 116 2.0 5.0 0.00 0.04 0.03 85 1014.8
20260830231503 78 116 1.0 4.0 0.00 0.04 0.03 85 1014.6
20260830231003 78 108 1.0 4.0 0.00 0.04 0.03 85 1014.5
20260830230503 78 105 2.0 5.0 0.00 0.04 0.03 85 1014.4
20260830230004 78 122 2.0 5.0 0.00 0.04 0.03 85 1014.3
20260830225504 78 125 2.0 5.0 0.00 0.04 0.03 84 1014.3
20260830225004 78 130 2.0 5.0 0.00 0.04 0.03 84 1014.3
20260830224504 78 133 2.0 5.0 0.00 0.04 0.03 84 1014.3
20260830224025 78 127 3.0 5.0 0.00 0.04 0.03 84 1014.3
20260830223503 78 116 1.0 5.0 0.00 0.04 0.03 84 1014.3
20260830223003 78 109 0.0 4.0 0.00 0.04 0.03 84 1014.3
20260830222503 78 149 0.0 2.0 0.00 0.04 0.03 84 1014.3
20260830222004 78 86 1.0 3.0 0.00 0.04 0.03 84 1014.3
20260830221504 79 78 1.0 4.0 0.00 0.05 0.03 84 1014.3
20260830221024 79 80 2.0 4.0 0.00 0.05 0.03 84 1014.2